UAL1012 KEWR-KORD

Flight info

Callsign UAL1012
Flight time 1h 52m
Altitude 36000
Route COATE Q436 KAYYS WYNDE3
Aircraft B738/M-SDE2E3FGHIRWXY/LB1

Departure

Time 2026-04-25 17:30
Airport Newark Liberty International Airport (KEWR)

Arrival

Time 2026-04-25 19:22
Airport Chicago O'Hare International Airport (KORD)
Time Latitude Longitude Altitude Speed Heading
2026-04-25 16:55 40.68398 -74.18196 22 ft 0 kts 257°
2026-04-25 17:19 40.68399 -74.18188 22 ft 2 kts 258°
2026-04-25 17:20 40.68402 -74.18169 22 ft 2 kts 257°
2026-04-25 17:20 40.68404 -74.18158 22 ft 2 kts 257°
2026-04-25 17:20 40.68411 -74.18140 22 ft 2 kts 226°
2026-04-25 17:20 40.68423 -74.18129 22 ft 2 kts 202°
2026-04-25 17:21 40.68438 -74.18124 22 ft 2 kts 178°
2026-04-25 17:21 40.68452 -74.18129 22 ft 2 kts 154°
2026-04-25 17:21 40.68464 -74.18140 22 ft 1 kts 130°
2026-04-25 17:21 40.68467 -74.18147 22 ft 1 kts 125°
2026-04-25 17:22 40.68469 -74.18148 22 ft 0 kts 126°
2026-04-25 17:24 40.68461 -74.18136 22 ft 5 kts 126°
2026-04-25 17:24 40.68440 -74.18092 22 ft 5 kts 118°
2026-04-25 17:25 40.68418 -74.18034 22 ft 9 kts 115°
2026-04-25 17:25 40.68381 -74.17934 22 ft 13 kts 115°
2026-04-25 17:25 40.68344 -74.17831 22 ft 10 kts 116°
2026-04-25 17:25 40.68314 -74.17750 22 ft 8 kts 116°
2026-04-25 17:26 40.68290 -74.17686 23 ft 5 kts 122°
2026-04-25 17:26 40.68277 -74.17667 23 ft 2 kts 136°
2026-04-25 17:26 40.68256 -74.17650 23 ft 6 kts 165°
2026-04-25 17:26 40.68183 -74.17691 23 ft 16 kts 210°
2026-04-25 17:27 40.68082 -74.17758 23 ft 15 kts 205°
2026-04-25 17:27 40.67984 -74.17820 23 ft 15 kts 206°
2026-04-25 17:27 40.67889 -74.17881 23 ft 14 kts 205°
2026-04-25 17:27 40.67858 -74.17899 22 ft 14 kts 205°
2026-04-25 17:28 40.67710 -74.17995 23 ft 13 kts 205°
2026-04-25 17:28 40.67626 -74.18043 22 ft 11 kts 187°
2026-04-25 17:28 40.67567 -74.17989 23 ft 10 kts 118°
2026-04-25 17:28 40.67588 -74.17915 23 ft 9 kts 32°
2026-04-25 17:29 40.67676 -74.17858 23 ft 32 kts 25°
2026-04-25 17:29 40.68140 -74.17563 23 ft 112 kts 26°
2026-04-25 17:29 40.69046 -74.16989 36 ft 175 kts 28°
2026-04-25 17:29 40.70226 -74.16216 517 ft 200 kts 29°
2026-04-25 17:30 40.71387 -74.15270 1432 ft 199 kts 45°
2026-04-25 17:30 40.72385 -74.13977 2118 ft 209 kts 52°
2026-04-25 17:30 40.73437 -74.12556 2662 ft 229 kts 49°
2026-04-25 17:30 40.74625 -74.11060 3355 ft 244 kts 47°
2026-04-25 17:31 40.75919 -74.09504 4000 ft 260 kts 44°
2026-04-25 17:31 40.77524 -74.08322 4742 ft 275 kts 13°
2026-04-25 17:31 40.79414 -74.08408 5634 ft 277 kts 338°
2026-04-25 17:31 40.80934 -74.09782 6715 ft 265 kts 309°
2026-04-25 17:32 40.82163 -74.11521 7634 ft 267 kts 313°
2026-04-25 17:32 40.83565 -74.13142 8515 ft 271 kts 317°
2026-04-25 17:32 40.84918 -74.14774 9444 ft 267 kts 307°
2026-04-25 17:32 40.85933 -74.16773 10354 ft 264 kts 297°
2026-04-25 17:33 40.86862 -74.18928 10828 ft 280 kts 298°
2026-04-25 17:33 40.87915 -74.21174 11354 ft 295 kts 301°
2026-04-25 17:33 40.89097 -74.23472 11855 ft 309 kts 302°
2026-04-25 17:33 40.90360 -74.25829 12326 ft 323 kts 303°
2026-04-25 17:34 40.91671 -74.28247 13081 ft 327 kts 303°
2026-04-25 17:34 40.93005 -74.30718 13812 ft 332 kts 303°
2026-04-25 17:34 40.94349 -74.33216 14554 ft 336 kts 303°
2026-04-25 17:34 40.95686 -74.35713 15429 ft 335 kts 303°
2026-04-25 17:35 40.97013 -74.38201 16173 ft 337 kts 303°
2026-04-25 17:35 40.98360 -74.40730 16837 ft 340 kts 303°
2026-04-25 17:35 40.99728 -74.43300 17486 ft 344 kts 303°
2026-04-25 17:35 41.01116 -74.45911 18089 ft 349 kts 303°
2026-04-25 17:36 41.02514 -74.48542 18731 ft 352 kts 303°
2026-04-25 17:36 41.03904 -74.51154 19384 ft 353 kts 304°
2026-04-25 17:36 41.05329 -74.53826 20028 ft 355 kts 304°
2026-04-25 17:36 41.06743 -74.56484 20568 ft 359 kts 303°
2026-04-25 17:37 41.08196 -74.59219 21103 ft 363 kts 303°
2026-04-25 17:37 41.09646 -74.61955 21645 ft 366 kts 303°
2026-04-25 17:37 41.11122 -74.64744 22112 ft 371 kts 303°
2026-04-25 17:37 41.12599 -74.67540 22677 ft 373 kts 302°
2026-04-25 17:38 41.14080 -74.70375 23217 ft 375 kts 301°
2026-04-25 17:38 41.14546 -74.71322 23399 ft 376 kts 300°
2026-04-25 17:38 41.16785 -74.76314 24266 ft 380 kts 297°
2026-04-25 17:38 41.18078 -74.79371 24746 ft 383 kts 297°
2026-04-25 17:39 41.19366 -74.82431 25249 ft 386 kts 297°
2026-04-25 17:39 41.20686 -74.85544 25760 ft 389 kts 297°
2026-04-25 17:39 41.22010 -74.88648 26308 ft 390 kts 297°
2026-04-25 17:39 41.23363 -74.91805 26810 ft 392 kts 297°
2026-04-25 17:40 41.24718 -74.94951 27220 ft 396 kts 297°
2026-04-25 17:40 41.26090 -74.98133 27611 ft 400 kts 297°
2026-04-25 17:40 41.27463 -75.01318 28026 ft 403 kts 297°
2026-04-25 17:40 41.28869 -75.04573 28465 ft 405 kts 297°
2026-04-25 17:41 41.30266 -75.07808 28896 ft 407 kts 297°
2026-04-25 17:41 41.31683 -75.11095 29318 ft 410 kts 297°
2026-04-25 17:41 41.33102 -75.14397 29731 ft 412 kts 297°
2026-04-25 17:41 41.34515 -75.17679 30220 ft 412 kts 297°
2026-04-25 17:42 41.35949 -75.21015 30568 ft 415 kts 297°
2026-04-25 17:42 41.37390 -75.24381 30711 ft 422 kts 297°
2026-04-25 17:42 41.38848 -75.27791 30988 ft 426 kts 297°
2026-04-25 17:42 41.40310 -75.31207 31381 ft 427 kts 297°
2026-04-25 17:43 41.41768 -75.34617 31965 ft 424 kts 297°
2026-04-25 17:43 41.43209 -75.37985 32555 ft 419 kts 297°
2026-04-25 17:43 41.44642 -75.41334 33089 ft 416 kts 297°
2026-04-25 17:43 41.46068 -75.44679 33585 ft 414 kts 297°
2026-04-25 17:44 41.47429 -75.47981 34026 ft 411 kts 295°
2026-04-25 17:44 41.48632 -75.51438 34406 ft 411 kts 292°
2026-04-25 17:44 41.49706 -75.54979 34686 ft 413 kts 290°
2026-04-25 17:44 41.50723 -75.58566 34923 ft 415 kts 289°
2026-04-25 17:45 41.51722 -75.62164 35187 ft 416 kts 289°
2026-04-25 17:45 41.52060 -75.63376 35388 ft 414 kts 290°
2026-04-25 17:45 41.53717 -75.69233 36007 ft 405 kts 289°
2026-04-25 17:45 41.54696 -75.72726 35997 ft 396 kts 289°
2026-04-25 17:46 41.56596 -75.79528 35996 ft 393 kts 289°
2026-04-25 17:46 41.58514 -75.86352 35988 ft 395 kts 289°
2026-04-25 17:47 41.60443 -75.93187 35986 ft 394 kts 289°
2026-04-25 17:47 41.62388 -76.00070 35981 ft 396 kts 289°
2026-04-25 17:48 41.65288 -76.10332 35966 ft 396 kts 289°
2026-04-25 17:49 41.67231 -76.17222 35965 ft 396 kts 289°
2026-04-25 17:49 41.69163 -76.24101 35966 ft 395 kts 289°
2026-04-25 17:50 41.71088 -76.30971 35957 ft 395 kts 289°
2026-04-25 17:50 41.73008 -76.37857 35962 ft 396 kts 289°
2026-04-25 17:51 41.74910 -76.44748 36140 ft 390 kts 287°
2026-04-25 17:51 41.75793 -76.48130 36356 ft 391 kts 288°
2026-04-25 17:51 41.76738 -76.51584 36126 ft 397 kts 289°
2026-04-25 17:51 41.77704 -76.55029 35955 ft 394 kts 288°
2026-04-25 17:52 41.78673 -76.58459 35955 ft 394 kts 289°
2026-04-25 17:52 41.80605 -76.65350 35944 ft 396 kts 288°
2026-04-25 17:53 41.82503 -76.72214 35949 ft 396 kts 287°
2026-04-25 17:53 41.84407 -76.79129 35947 ft 396 kts 288°
2026-04-25 17:54 41.86304 -76.86041 35943 ft 395 kts 288°
2026-04-25 17:54 41.88189 -76.92946 35938 ft 395 kts 287°
2026-04-25 17:55 41.90071 -76.99872 35933 ft 398 kts 287°
2026-04-25 17:55 41.91956 -77.06828 35928 ft 397 kts 287°
2026-04-25 17:56 41.93837 -77.13787 35927 ft 397 kts 287°
2026-04-25 17:56 41.95715 -77.20770 35926 ft 398 kts 287°
2026-04-25 17:57 41.97581 -77.27712 35914 ft 400 kts 287°
2026-04-25 17:57 41.99460 -77.34737 35911 ft 398 kts 287°
2026-04-25 17:58 42.01325 -77.41742 35910 ft 400 kts 287°
2026-04-25 17:58 42.03228 -77.48762 35902 ft 400 kts 287°
2026-04-25 17:59 42.05150 -77.55789 35892 ft 400 kts 287°
2026-04-25 17:59 42.07051 -77.62771 35888 ft 399 kts 287°
2026-04-25 18:00 42.08949 -77.69786 35874 ft 399 kts 287°
2026-04-25 18:00 42.10842 -77.76784 35873 ft 400 kts 286°
2026-04-25 18:01 42.12732 -77.83826 35880 ft 401 kts 285°
2026-04-25 18:01 42.14623 -77.90882 35881 ft 404 kts 285°
2026-04-25 18:02 42.16509 -77.97942 35884 ft 402 kts 286°
2026-04-25 18:02 42.18399 -78.05036 35882 ft 403 kts 286°
2026-04-25 18:03 42.20274 -78.12076 35885 ft 402 kts 285°
2026-04-25 18:03 42.22166 -78.19221 35876 ft 404 kts 285°
2026-04-25 18:04 42.24039 -78.26321 35927 ft 402 kts 285°
2026-04-25 18:04 42.24960 -78.29862 35714 ft 401 kts 285°
2026-04-25 18:04 42.25850 -78.33380 35743 ft 404 kts 284°
2026-04-25 18:04 42.26738 -78.36952 35861 ft 403 kts 284°
2026-04-25 18:05 42.27631 -78.40576 35866 ft 405 kts 284°
2026-04-25 18:05 42.29385 -78.47727 35867 ft 405 kts 284°
2026-04-25 18:06 42.31157 -78.54948 35865 ft 405 kts 284°
2026-04-25 18:06 42.32922 -78.62130 35865 ft 406 kts 284°
2026-04-25 18:07 42.34692 -78.69343 35875 ft 407 kts 284°
2026-04-25 18:07 42.36461 -78.76578 35859 ft 403 kts 284°
2026-04-25 18:08 42.38205 -78.83742 35850 ft 407 kts 283°
2026-04-25 18:08 42.39760 -78.91103 35846 ft 403 kts 277°
2026-04-25 18:09 42.40546 -78.98513 35856 ft 399 kts 272°
2026-04-25 18:09 42.41035 -79.05966 35862 ft 400 kts 271°
2026-04-25 18:10 42.41491 -79.13438 35873 ft 401 kts 271°
2026-04-25 18:10 42.41958 -79.20946 35882 ft 402 kts 271°
2026-04-25 18:11 42.42433 -79.28453 35883 ft 402 kts 271°
2026-04-25 18:11 42.42910 -79.35973 35889 ft 401 kts 271°
2026-04-25 18:12 42.43385 -79.43488 35887 ft 402 kts 272°
2026-04-25 18:12 42.43852 -79.50967 35896 ft 402 kts 271°
2026-04-25 18:13 42.44316 -79.58494 35902 ft 402 kts 271°
2026-04-25 18:13 42.44776 -79.66022 35904 ft 399 kts 271°
2026-04-25 18:14 42.45450 -79.77242 35914 ft 401 kts 271°
2026-04-25 18:14 42.45896 -79.84757 35925 ft 402 kts 270°
2026-04-25 18:15 42.46337 -79.92253 35933 ft 403 kts 271°
2026-04-25 18:15 42.46776 -79.99815 35935 ft 403 kts 270°
2026-04-25 18:16 42.47206 -80.07299 35934 ft 402 kts 270°
2026-04-25 18:17 42.47851 -80.18682 35937 ft 405 kts 270°
2026-04-25 18:17 42.48274 -80.26258 35937 ft 404 kts 271°
2026-04-25 18:18 42.48688 -80.33754 35939 ft 403 kts 270°
2026-04-25 18:18 42.49098 -80.41297 35938 ft 403 kts 271°
2026-04-25 18:19 42.49505 -80.48853 35938 ft 403 kts 271°
2026-04-25 18:19 42.49909 -80.56445 35942 ft 404 kts 271°
2026-04-25 18:20 42.50304 -80.63990 35943 ft 404 kts 271°
2026-04-25 18:20 42.50675 -80.71536 35945 ft 403 kts 269°
2026-04-25 18:21 42.50923 -80.79148 35942 ft 405 kts 268°
2026-04-25 18:21 42.51132 -80.86686 35945 ft 404 kts 268°
2026-04-25 18:22 42.51345 -80.94258 35950 ft 404 kts 269°
2026-04-25 18:22 42.51563 -81.01859 35951 ft 404 kts 269°
2026-04-25 18:23 42.51781 -81.09474 35950 ft 405 kts 269°
2026-04-25 18:23 42.51997 -81.17062 35947 ft 405 kts 269°
2026-04-25 18:24 42.52208 -81.24681 35949 ft 407 kts 269°
2026-04-25 18:24 42.52749 -81.32293 35950 ft 408 kts 275°
2026-04-25 18:25 42.53645 -81.39876 35954 ft 409 kts 276°
2026-04-25 18:25 42.54579 -81.47501 35961 ft 410 kts 276°
2026-04-25 18:26 42.55474 -81.55064 35961 ft 409 kts 276°
2026-04-25 18:26 42.56344 -81.62657 35962 ft 410 kts 275°
2026-04-25 18:27 42.57199 -81.70270 35964 ft 409 kts 275°
2026-04-25 18:27 42.58046 -81.77879 35966 ft 409 kts 275°
2026-04-25 18:28 42.58890 -81.85528 35962 ft 411 kts 275°
2026-04-25 18:28 42.59732 -81.93199 35964 ft 411 kts 275°
2026-04-25 18:29 42.60981 -82.04671 35967 ft 413 kts 275°
2026-04-25 18:30 42.62634 -82.20028 35969 ft 412 kts 276°
2026-04-25 18:30 42.63450 -82.27676 35971 ft 412 kts 276°
2026-04-25 18:31 42.64263 -82.35349 35970 ft 412 kts 276°
2026-04-25 18:31 42.65065 -82.42979 35972 ft 411 kts 276°
2026-04-25 18:32 42.65867 -82.50657 35975 ft 413 kts 276°
2026-04-25 18:32 42.66671 -82.58401 35975 ft 412 kts 276°
2026-04-25 18:33 42.67465 -82.66103 35975 ft 413 kts 276°
2026-04-25 18:33 42.68251 -82.73775 35977 ft 414 kts 276°
2026-04-25 18:34 42.69035 -82.81517 35977 ft 413 kts 276°
2026-04-25 18:34 42.69808 -82.89232 35977 ft 414 kts 276°
2026-04-25 18:35 42.70576 -82.96948 35978 ft 414 kts 276°
2026-04-25 18:35 42.71358 -83.04716 35984 ft 414 kts 277°
2026-04-25 18:36 42.72249 -83.12409 35985 ft 414 kts 278°
2026-04-25 18:36 42.73178 -83.20129 35987 ft 415 kts 278°
2026-04-25 18:37 42.74094 -83.27846 35990 ft 414 kts 278°
2026-04-25 18:37 42.74991 -83.35533 35990 ft 414 kts 278°
2026-04-25 18:38 42.75886 -83.43283 35993 ft 415 kts 278°
2026-04-25 18:38 42.76769 -83.50996 35993 ft 414 kts 278°
2026-04-25 18:39 42.77643 -83.58684 35990 ft 414 kts 278°
2026-04-25 18:39 42.78516 -83.66424 35993 ft 416 kts 277°
2026-04-25 18:40 42.79380 -83.74129 35993 ft 414 kts 277°
2026-04-25 18:40 42.80246 -83.81897 35993 ft 415 kts 277°
2026-04-25 18:41 42.81099 -83.89604 35990 ft 414 kts 277°
2026-04-25 18:41 42.81953 -83.97362 35999 ft 415 kts 278°
2026-04-25 18:42 42.82520 -84.02541 36004 ft 415 kts 277°
2026-04-25 18:42 42.83643 -84.12869 36003 ft 414 kts 277°
2026-04-25 18:43 42.84478 -84.20596 36004 ft 413 kts 277°
2026-04-25 18:43 42.85300 -84.28268 36010 ft 413 kts 278°
2026-04-25 18:44 42.86128 -84.36033 36007 ft 412 kts 278°
2026-04-25 18:44 42.86941 -84.43710 36005 ft 414 kts 278°
2026-04-25 18:45 42.87746 -84.51444 36003 ft 414 kts 277°
2026-04-25 18:45 42.88111 -84.59221 36002 ft 412 kts 269°
2026-04-25 18:46 42.87612 -84.66988 36011 ft 414 kts 263°
2026-04-25 18:46 42.86806 -84.74719 36009 ft 413 kts 262°
2026-04-25 18:47 42.85956 -84.82443 36008 ft 413 kts 262°
2026-04-25 18:47 42.85118 -84.90173 36004 ft 414 kts 262°
2026-04-25 18:48 42.84287 -84.97930 36015 ft 415 kts 262°
2026-04-25 18:48 42.83463 -85.05628 35998 ft 414 kts 262°
2026-04-25 18:49 42.82634 -85.13353 36007 ft 413 kts 262°
2026-04-25 18:49 42.81799 -85.21079 35997 ft 413 kts 263°
2026-04-25 18:50 42.80959 -85.28803 36002 ft 413 kts 263°
2026-04-25 18:50 42.80120 -85.36480 35998 ft 414 kts 263°
2026-04-25 18:51 42.79551 -85.41663 35992 ft 412 kts 262°
2026-04-25 18:51 42.78365 -85.51913 35996 ft 414 kts 260°
2026-04-25 18:52 42.77069 -85.59505 36003 ft 412 kts 257°
2026-04-25 18:52 42.75643 -85.67033 35994 ft 414 kts 257°
2026-04-25 18:53 42.74222 -85.74624 35985 ft 415 kts 257°
2026-04-25 18:53 42.72827 -85.82200 35990 ft 412 kts 257°
2026-04-25 18:54 42.70758 -85.93514 35983 ft 414 kts 257°
2026-04-25 18:55 42.69369 -86.01096 35986 ft 415 kts 257°
2026-04-25 18:55 42.67983 -86.08642 35999 ft 414 kts 257°
2026-04-25 18:56 42.66590 -86.16202 35993 ft 412 kts 257°
2026-04-25 18:56 42.65904 -86.19912 35876 ft 406 kts 257°
2026-04-25 18:56 42.65209 -86.23659 35319 ft 407 kts 258°
2026-04-25 18:56 42.64521 -86.27364 34656 ft 411 kts 258°
2026-04-25 18:57 42.63829 -86.31091 33894 ft 414 kts 258°
2026-04-25 18:57 42.63119 -86.34912 33103 ft 417 kts 258°
2026-04-25 18:57 42.62420 -86.38663 32539 ft 414 kts 258°
2026-04-25 18:57 42.62184 -86.39928 32383 ft 412 kts 258°
2026-04-25 18:58 42.61014 -86.46165 31504 ft 406 kts 258°
2026-04-25 18:58 42.59636 -86.53493 29933 ft 401 kts 258°
2026-04-25 18:58 42.58952 -86.57117 29158 ft 397 kts 258°
2026-04-25 18:59 42.57595 -86.64298 27542 ft 391 kts 258°
2026-04-25 18:59 42.56262 -86.71335 25928 ft 384 kts 257°
2026-04-25 19:00 42.54653 -86.78172 24296 ft 381 kts 251°
2026-04-25 19:00 42.53738 -86.81489 23522 ft 378 kts 250°
2026-04-25 19:01 42.51883 -86.88057 22029 ft 371 kts 250°
2026-04-25 19:01 42.50980 -86.91280 21363 ft 366 kts 251°
2026-04-25 19:01 42.50091 -86.94484 20591 ft 364 kts 251°
2026-04-25 19:01 42.49219 -86.97648 19837 ft 361 kts 251°
2026-04-25 19:02 42.47492 -87.03951 18441 ft 354 kts 251°
2026-04-25 19:02 42.46651 -87.07024 17645 ft 353 kts 251°
2026-04-25 19:02 42.45807 -87.10110 17201 ft 345 kts 251°
2026-04-25 19:03 42.44699 -87.14161 16826 ft 343 kts 251°
2026-04-25 19:03 42.43339 -87.19128 15752 ft 342 kts 251°
2026-04-25 19:03 42.42520 -87.22114 15046 ft 339 kts 251°
2026-04-25 19:04 42.40878 -87.28085 13592 ft 336 kts 251°
2026-04-25 19:04 42.40069 -87.31020 12866 ft 334 kts 251°
2026-04-25 19:05 42.38473 -87.36796 11750 ft 327 kts 251°
2026-04-25 19:05 42.36880 -87.42548 10954 ft 320 kts 251°
2026-04-25 19:05 42.36109 -87.45328 10937 ft 321 kts 251°
2026-04-25 19:06 42.35319 -87.48181 10939 ft 323 kts 251°
2026-04-25 19:06 42.33500 -87.53702 10952 ft 326 kts 236°
2026-04-25 19:06 42.31943 -87.55895 10974 ft 326 kts 221°
2026-04-25 19:07 42.28291 -87.59568 10960 ft 326 kts 217°
2026-04-25 19:07 42.26457 -87.61370 10969 ft 326 kts 217°
2026-04-25 19:08 42.22864 -87.65048 10964 ft 326 kts 218°
2026-04-25 19:08 42.21059 -87.66939 10830 ft 328 kts 218°
2026-04-25 19:09 42.15731 -87.72546 10085 ft 323 kts 219°
2026-04-25 19:09 42.14571 -87.73762 9946 ft 318 kts 219°
2026-04-25 19:09 42.10766 -87.77898 9328 ft 286 kts 227°
2026-04-25 19:10 42.09655 -87.80032 9005 ft 278 kts 249°
2026-04-25 19:10 42.09200 -87.82507 8619 ft 274 kts 268°
2026-04-25 19:10 42.09171 -87.85062 8239 ft 272 kts 273°
2026-04-25 19:10 42.09186 -87.87584 7938 ft 269 kts 273°
2026-04-25 19:11 42.09191 -87.90043 7765 ft 258 kts 273°
2026-04-25 19:11 42.09189 -87.92415 7500 ft 250 kts 273°
2026-04-25 19:11 42.09186 -87.94720 7195 ft 244 kts 273°
2026-04-25 19:11 42.09183 -87.96995 6887 ft 239 kts 274°
2026-04-25 19:12 42.09182 -87.99217 6601 ft 237 kts 274°
2026-04-25 19:12 42.09184 -88.01441 6238 ft 240 kts 274°
2026-04-25 19:12 42.09183 -88.03674 5886 ft 242 kts 274°
2026-04-25 19:12 42.09177 -88.05939 5529 ft 244 kts 274°
2026-04-25 19:13 42.09170 -88.08242 5173 ft 246 kts 274°
2026-04-25 19:13 42.09163 -88.10564 4802 ft 249 kts 273°
2026-04-25 19:13 42.09155 -88.12892 4378 ft 250 kts 274°
2026-04-25 19:13 42.09146 -88.15197 4061 ft 245 kts 274°
2026-04-25 19:14 42.09134 -88.17429 4033 ft 229 kts 274°
2026-04-25 19:14 42.09130 -88.18136 4027 ft 224 kts 274°
2026-04-25 19:14 42.09114 -88.21492 4042 ft 212 kts 272°
2026-04-25 19:14 42.08773 -88.23395 4015 ft 215 kts 241°
2026-04-25 19:15 42.07718 -88.24759 4012 ft 210 kts 203°
2026-04-25 19:15 42.06323 -88.25131 4045 ft 204 kts 178°
2026-04-25 19:15 42.04901 -88.25110 4039 ft 206 kts 176°
2026-04-25 19:15 42.03458 -88.25074 3952 ft 204 kts 176°
2026-04-25 19:16 42.02035 -88.25049 3958 ft 205 kts 176°
2026-04-25 19:16 42.00623 -88.25019 3947 ft 204 kts 176°
2026-04-25 19:16 41.99191 -88.24982 3954 ft 205 kts 173°
2026-04-25 19:16 41.97892 -88.24348 3953 ft 196 kts 131°
2026-04-25 19:17 41.97335 -88.22807 3955 ft 182 kts 87°
2026-04-25 19:17 41.97456 -88.21140 3956 ft 180 kts 78°
2026-04-25 19:17 41.97620 -88.19490 3958 ft 178 kts 75°
2026-04-25 19:17 41.98074 -88.17971 3951 ft 176 kts 59°
2026-04-25 19:18 41.98550 -88.16453 3962 ft 179 kts 73°
2026-04-25 19:18 41.98705 -88.14799 3948 ft 177 kts 83°
2026-04-25 19:18 41.98744 -88.13110 3652 ft 182 kts 85°
2026-04-25 19:18 41.98755 -88.11455 3373 ft 175 kts 85°
2026-04-25 19:19 41.98764 -88.09817 3144 ft 177 kts 85°
2026-04-25 19:19 41.98772 -88.08174 2898 ft 175 kts 85°
2026-04-25 19:19 41.98777 -88.06589 2662 ft 161 kts 85°
2026-04-25 19:19 41.98779 -88.05632 2569 ft 148 kts 85°
2026-04-25 19:20 41.98787 -88.03839 2240 ft 140 kts 85°
2026-04-25 19:20 41.98792 -88.02533 2079 ft 138 kts 84°
2026-04-25 19:20 41.98799 -88.01214 1885 ft 139 kts 84°
2026-04-25 19:20 41.98800 -87.99931 1698 ft 139 kts 84°
2026-04-25 19:21 41.98807 -87.98622 1502 ft 140 kts 85°
2026-04-25 19:21 41.98814 -87.95977 1128 ft 142 kts 86°
2026-04-25 19:21 41.98816 -87.94662 934 ft 142 kts 86°
2026-04-25 19:22 41.98827 -87.93332 738 ft 143 kts 85°
2026-04-25 19:22 41.98833 -87.92044 669 ft 115 kts 89°
2026-04-25 19:22 41.98831 -87.90829 655 ft 37 kts 91°
2026-04-25 19:23 41.98782 -87.90518 654 ft 22 kts 116°
2026-04-25 19:23 41.98680 -87.90572 655 ft 13 kts 270°
2026-04-25 19:23 41.98680 -87.90673 655 ft 5 kts 270°
2026-04-25 19:24 41.98680 -87.90691 655 ft 0 kts 270°
2026-04-25 19:25 41.98680 -87.90701 655 ft 3 kts 270°
2026-04-25 19:25 41.98680 -87.90736 656 ft 6 kts 270°
2026-04-25 19:26 41.98667 -87.90830 658 ft 13 kts 239°
2026-04-25 19:26 41.98582 -87.90936 658 ft 17 kts 220°
2026-04-25 19:26 41.98499 -87.91029 661 ft 10 kts 219°
2026-04-25 19:26 41.98488 -87.91041 661 ft 0 kts 219°
2026-04-25 19:27 41.98488 -87.91042 661 ft 0 kts 219°
2026-04-25 19:28 41.98477 -87.91053 661 ft 3 kts 219°
2026-04-25 19:28 41.98448 -87.91084 661 ft 7 kts 218°
2026-04-25 19:29 41.98394 -87.91143 661 ft 13 kts 219°
2026-04-25 19:29 41.98322 -87.91222 662 ft 12 kts 212°
2026-04-25 19:29 41.98257 -87.91200 663 ft 10 kts 129°
2026-04-25 19:29 41.98210 -87.91136 664 ft 8 kts 135°
2026-04-25 19:30 41.98166 -87.91098 664 ft 6 kts 180°
2026-04-25 19:30 41.98124 -87.91097 664 ft 5 kts 148°
2026-04-25 19:30 41.98096 -87.91060 664 ft 5 kts 128°
2026-04-25 19:30 41.98087 -87.91042 664 ft 0 kts 127°